"startDT [UTC]","vpos","CH4 [ppm]","stdev(CH4) [ppm]","CO2 [ppm]","stdev(CO2) [ppm]","H2O [ppm]","stdev(H2O)","p_LGR [torr]","T_LGR [C]","mt1_LGR [us]","mt2_LGR [us]","T_ECpre [C]","T_EC1 [C]","T_EC2 [C]","p_inlet [hPa]","p_in [hPa]","p_out [hPa]","T_inlet [C]","RH_inlet [%]","dwpt_inlet [C]","T_vent [C]","RH_vent [%]","dwpt_vent [C]","flow_vent [l min-1]","flow_inlet [l min-1]","dwpt_sample [C]","T_room [C]"
2012-02-03 00:00:00,0.0,1.9050,0.0010,400.33,0.26,159.4,32.5,138.10,29.27,24.61,36.34,0.04,-272.74,-272.74,-51,571,-904,25.0,2.7,-24.2,24.9,2.8,-23.8,5.73,2.34,-25.0,28.1
2012-02-03 00:01:00,0.0,1.9052,0.0010,400.31,0.21,160.4,33.0,138.10,29.27,24.61,36.34,0.04,-272.74,-272.74,-50,571,-904,25.0,2.7,-24.2,24.9,2.8,-23.8,5.73,2.19,-25.0,28.0
2012-02-03 00:02:00,0.0,1.9051,0.0009,400.28,0.35,162.7,35.7,138.10,29.27,24.61,36.35,0.04,-272.74,-272.74,-51,572,-905,25.0,2.8,-24.1,24.9,2.8,-23.8,5.73,2.31,-25.0,28.0
2012-02-03 00:03:00,0.0,1.9052,0.0009,400.30,0.31,161.5,27.0,138.10,29.27,24.61,36.35,0.04,-272.74,-272.74,-50,571,-904,25.0,2.7,-24.2,24.9,2.8,-23.8,5.73,2.33,-25.0,28.0
2012-02-03 00:04:00,0.0,1.9053,0.0009,400.38,0.34,166.3,35.8,138.10,29.28,24.61,36.35,0.04,-272.73,-272.74,-50,572,-904,25.0,2.7,-24.2,24.9,2.8,-23.8,5.73,2.18,-25.0,28.0
2012-02-03 00:05:00,0.0,1.9058,0.0009,400.39,0.36,168.5,33.7,138.10,29.28,24.61,36.35,0.04,-272.74,-272.74,-51,571,-904,25.0,2.8,-24.1,24.9,2.9,-23.7,5.73,2.34,-25.0,28.0
2012-02-03 00:06:00,0.0,1.9058,0.0012,400.43,0.30,155.1,30.5,138.10,29.28,24.61,36.35,0.04,-272.74,-272.74,-50,572,-904,25.0,2.8,-24.0,24.9,2.9,-23.7,5.73,2.29,-25.0,28.0
2012-02-03 00:07:00,0.0,1.9061,0.0009,400.48,0.31,165.0,33.7,138.10,29.29,24.61,36.35,0.04,-272.74,-272.74,-51,571,-904,25.0,2.8,-24.0,24.9,2.9,-23.6,5.73,2.19,-25.0,28.1
2012-02-03 00:08:00,0.0,1.9062,0.0009,400.36,0.31,160.8,23.6,138.10,29.29,24.61,36.35,0.04,-272.74,-272.74,-50,571,-904,25.0,2.8,-24.0,24.9,2.9,-23.6,5.73,2.35,-25.0,28.1
2012-02-03 00:09:00,0.0,1.9066,0.0009,400.44,0.30,163.8,31.3,138.10,29.29,24.61,36.35,0.04,-272.74,-272.74,-50,572,-905,25.0,2.8,-24.0,24.9,2.9,-23.6,5.73,2.27,-25.0,28.0
2012-02-03 00:10:00,0.0,1.9060,0.0008,400.45,0.32,162.8,35.8,138.10,29.30,24.61,36.35,0.04,-272.73,-272.74,-51,571,-905,25.0,2.8,-24.0,24.9,2.9,-23.6,5.73,2.20,-25.0,27.9
2012-02-03 00:11:00,0.0,1.9066,0.0008,400.47,0.25,160.3,35.9,138.10,29.30,24.61,36.35,0.04,-272.74,-272.74,-50,572,-904,25.0,2.8,-24.0,25.0,2.9,-23.6,5.73,2.36,-25.0,28.0
2012-02-03 00:12:00,0.0,1.9068,0.0009,400.54,0.27,160.5,27.0,138.10,29.30,24.61,36.35,0.04,-272.74,-272.73,-51,572,-904,25.0,2.8,-24.0,25.0,2.9,-23.5,5.73,2.26,-25.0,28.1
2012-02-03 00:13:00,0.0,1.9069,0.0008,400.57,0.26,158.9,37.3,138.10,29.31,24.61,36.34,0.04,-272.74,-272.74,-50,571,-904,25.0,2.8,-24.0,25.0,2.9,-23.6,5.73,2.22,-25.0,28.1
2012-02-03 00:14:00,0.0,1.9064,0.0009,400.42,0.23,163.1,32.4,138.10,29.31,24.61,36.35,0.04,-272.74,-272.74,-50,571,-904,25.0,2.8,-24.0,25.0,2.9,-23.5,5.73,2.37,-25.0,28.2
2012-02-03 00:15:00,0.0,1.9067,0.0010,400.53,0.27,156.9,30.8,138.10,29.32,24.61,36.35,0.04,-272.74,-272.74,-51,571,-905,25.0,2.8,-24.0,25.0,2.9,-23.6,5.73,2.23,-25.0,28.2
2012-02-03 00:16:00,0.0,1.9067,0.0009,400.45,0.32,159.2,34.7,138.10,29.32,24.61,36.35,0.04,-272.74,-272.74,-50,572,-905,25.0,2.8,-24.0,25.0,2.9,-23.6,5.73,2.24,-25.0,28.1
2012-02-03 00:17:00,0.0,1.9067,0.0009,400.38,0.31,150.1,26.7,138.10,29.33,24.61,36.35,0.04,-272.73,-272.74,-51,571,-905,25.0,2.8,-24.0,25.0,2.9,-23.6,5.73,2.36,-25.0,28.0
2012-02-03 00:18:00,0.0,1.9068,0.0008,400.61,0.26,164.0,34.5,138.10,29.33,24.61,36.34,0.04,-272.74,-272.74,-50,572,-905,25.1,2.8,-23.9,25.0,2.9,-23.6,5.73,2.23,-25.0,28.1
2012-02-03 00:19:00,0.0,1.9069,0.0009,400.53,0.28,160.0,34.5,138.10,29.34,24.61,36.35,0.04,-272.73,-272.74,-50,572,-904,25.0,2.8,-23.9,25.0,2.9,-23.6,5.73,2.24,-25.0,28.1
2012-02-03 00:20:00,0.0,1.9069,0.0008,400.50,0.28,161.4,33.6,138.10,29.34,24.61,36.35,0.04,-272.74,-272.74,-51,572,-904,25.1,2.8,-23.9,25.0,2.9,-23.6,5.73,2.37,-25.1,28.1
2012-02-03 00:21:00,0.0,1.9067,0.0008,400.54,0.26,164.4,30.3,138.10,29.34,24.61,36.35,0.04,-272.74,-272.74,-50,572,-904,25.0,2.8,-23.9,25.0,2.9,-23.6,5.73,2.21,-25.0,28.1
2012-02-03 00:22:00,0.0,1.9067,0.0009,400.58,0.30,156.3,33.4,138.10,29.35,24.61,36.34,0.04,-272.74,-272.74,-51,572,-904,25.1,2.8,-23.8,25.0,2.9,-23.6,5.73,2.25,-25.0,28.0
2012-02-03 00:23:00,0.0,1.9069,0.0008,400.45,0.28,152.5,29.2,138.10,29.35,24.61,36.35,0.04,-272.74,-272.74,-50,572,-905,25.1,2.8,-23.9,25.0,2.9,-23.6,5.73,2.36,-25.0,28.0
2012-02-03 00:24:00,0.0,1.9066,0.0010,400.49,0.28,162.8,36.3,138.10,29.35,24.61,36.35,0.04,-272.74,-272.74,-50,572,-905,25.1,2.8,-23.8,25.0,2.9,-23.6,5.73,2.21,-25.0,28.1
2012-02-03 00:25:00,0.0,1.9067,0.0011,400.56,0.25,162.7,28.3,138.10,29.36,24.61,36.35,0.04,-272.74,-272.74,-51,571,-905,25.0,2.8,-23.9,25.0,2.9,-23.6,5.73,2.25,-25.0,28.0
2012-02-03 00:26:00,0.0,1.9068,0.0009,400.44,0.21,166.3,33.5,138.10,29.36,24.61,36.35,0.04,-272.74,-272.74,-50,572,-905,25.1,2.8,-23.9,25.0,2.9,-23.5,5.73,2.36,-25.1,28.0
2012-02-03 00:27:00,0.0,1.9062,0.0010,400.54,0.25,161.7,30.5,138.10,29.36,24.61,36.35,0.04,-272.74,-272.74,-51,572,-905,25.1,2.8,-23.9,25.0,2.9,-23.6,5.73,2.21,-25.1,28.1
2012-02-03 00:28:00,0.0,1.9064,0.0011,400.46,0.31,164.4,27.3,138.10,29.36,24.61,36.35,0.04,-272.73,-272.74,-50,571,-905,25.1,2.8,-23.9,25.0,2.9,-23.5,5.73,2.26,-25.0,28.2
2012-02-03 00:29:00,0.0,1.9062,0.0010,400.58,0.29,149.2,33.9,138.10,29.37,24.61,36.35,0.04,-272.74,-272.74,-50,572,-904,25.1,2.8,-23.8,25.0,2.9,-23.5,5.73,2.36,-25.0,28.1
2012-02-03 00:30:00,0.0,1.9059,0.0009,400.42,0.27,159.3,29.5,138.10,29.37,24.61,36.35,0.04,-272.74,-272.74,-51,572,-904,25.1,2.8,-23.7,25.0,2.9,-23.5,5.73,2.21,-25.0,28.0
2012-02-03 00:31:00,0.0,1.9059,0.0011,400.40,0.29,160.7,35.2,138.10,29.37,24.61,36.35,0.04,-272.74,-272.74,-50,572,-904,25.1,2.8,-23.8,25.0,2.9,-23.4,5.73,2.27,-25.0,28.1
2012-02-03 00:32:00,0.0,1.9056,0.0008,400.38,0.22,165.7,35.0,138.10,29.38,24.62,36.35,0.04,-272.74,-272.74,-51,572,-905,25.1,2.8,-23.7,25.0,2.9,-23.4,5.73,2.35,-25.0,28.1
2012-02-03 00:33:00,0.0,1.9063,0.0007,400.46,0.31,158.1,34.1,138.10,29.38,24.61,36.35,0.04,-272.74,-272.74,-50,572,-905,25.1,2.9,-23.6,25.0,2.9,-23.4,5.73,2.20,-25.0,28.1
2012-02-03 00:34:00,0.0,1.9055,0.0010,400.39,0.27,159.1,29.4,138.10,29.38,24.61,36.35,0.04,-272.73,-272.74,-50,572,-905,25.1,2.8,-23.7,25.0,2.9,-23.3,5.73,2.29,-25.1,28.1
2012-02-03 00:35:00,0.0,1.9062,0.0011,400.50,0.29,156.6,36.0,138.10,29.39,24.61,36.35,0.04,-272.74,-272.74,-51,571,-905,25.1,2.8,-23.7,25.0,2.9,-23.4,5.73,2.35,-25.0,28.1
2012-02-03 00:36:00,0.0,1.9055,0.0010,400.42,0.28,166.1,33.8,138.10,29.39,24.61,36.35,0.04,-272.74,-272.74,-50,572,-905,25.1,2.9,-23.6,25.1,2.9,-23.3,5.73,2.20,-25.0,28.1
2012-02-03 00:37:00,0.0,1.9056,0.0010,400.44,0.25,154.7,30.2,138.10,29.39,24.61,36.35,0.04,-272.74,-272.74,-51,572,-905,25.1,2.9,-23.6,25.1,3.0,-23.3,5.73,2.29,-25.0,28.2
2012-02-03 00:38:00,0.0,1.9059,0.0009,400.44,0.31,159.7,34.2,138.10,29.40,24.61,36.35,0.04,-272.74,-272.74,-50,572,-905,25.1,2.9,-23.6,25.1,3.0,-23.2,5.73,2.34,-25.0,28.2
2012-02-03 00:39:00,0.0,1.9058,0.0008,400.33,0.29,166.9,33.2,138.10,29.40,24.61,36.36,0.04,-272.74,-272.74,-50,572,-905,25.1,2.9,-23.6,25.1,3.0,-23.2,5.73,2.19,-25.0,28.1
2012-02-03 00:40:00,0.0,1.9060,0.0010,400.38,0.27,149.4,34.1,138.10,29.40,24.61,36.36,0.04,-272.74,-272.74,-51,572,-905,25.1,2.9,-23.6,25.1,3.0,-23.2,5.73,2.31,-25.0,28.2
2012-02-03 00:41:00,0.0,1.9060,0.0008,400.58,0.32,168.3,31.9,138.10,29.41,24.61,36.34,0.04,-272.74,-272.74,-50,572,-905,25.1,2.9,-23.6,25.1,3.0,-23.2,5.73,2.33,-25.0,28.1
2012-02-03 00:42:00,0.0,1.9056,0.0010,400.50,0.26,157.9,35.2,138.10,29.41,24.61,36.35,0.04,-272.74,-272.74,-51,572,-905,25.1,2.8,-23.6,25.1,3.0,-23.2,5.73,2.19,-25.0,28.2
2012-02-03 00:43:00,0.0,1.9059,0.0010,400.55,0.25,162.7,29.4,138.10,29.41,24.61,36.35,0.04,-272.74,-272.74,-50,572,-905,25.1,2.8,-23.6,25.1,3.0,-23.2,5.73,2.31,-25.0,28.2
2012-02-03 00:44:00,0.0,1.9062,0.0007,400.44,0.28,155.9,31.3,138.10,29.41,24.61,36.35,0.04,-272.74,-272.74,-50,572,-905,25.1,2.9,-23.6,25.1,3.0,-23.2,5.73,2.33,-25.0,28.1
2012-02-03 00:45:00,0.0,1.9064,0.0010,400.40,0.28,163.2,28.8,138.10,29.42,24.61,36.36,0.04,-272.74,-272.74,-51,572,-905,25.1,2.8,-23.6,25.1,2.9,-23.3,5.73,2.19,-25.0,28.1
2012-02-03 00:46:00,0.0,1.9057,0.0007,400.41,0.29,168.4,34.1,138.10,29.42,24.61,36.35,0.04,-272.74,-272.74,-50,572,-905,25.1,2.9,-23.6,25.1,2.9,-23.4,5.73,2.31,-25.0,28.2
2012-02-03 00:47:00,0.0,1.9055,0.0010,400.33,0.28,166.3,35.0,138.10,29.43,24.61,36.36,0.04,-272.74,-272.74,-51,572,-905,25.1,2.9,-23.6,25.1,2.9,-23.3,5.73,2.32,-25.0,28.1
2012-02-03 00:48:00,0.0,1.9048,0.0010,400.37,0.23,161.0,33.5,138.10,29.43,24.61,36.35,0.04,-272.74,-272.74,-51,572,-905,25.2,2.8,-23.6,25.1,2.9,-23.3,5.73,2.19,-25.0,28.1
2012-02-03 00:49:00,0.0,1.9047,0.0009,400.36,0.25,169.4,30.0,138.10,29.43,24.61,36.35,0.04,-272.74,-272.74,-50,572,-905,25.1,2.9,-23.6,25.1,2.9,-23.3,5.73,2.32,-25.0,28.2
2012-02-03 00:50:00,0.0,1.9045,0.0008,400.33,0.25,161.1,31.7,138.10,29.44,24.61,36.36,0.04,-272.74,-272.74,-51,572,-905,25.1,2.9,-23.6,25.1,3.0,-23.2,5.73,2.32,-25.0,28.2
2012-02-03 00:51:00,0.0,1.9053,0.0009,400.44,0.29,164.1,29.3,138.10,29.44,24.61,36.36,0.04,-272.74,-272.74,-50,572,-905,25.1,2.9,-23.6,25.1,3.0,-23.2,5.73,2.19,-25.0,28.2
2012-02-03 00:52:00,0.0,1.9054,0.0010,400.49,0.26,158.8,34.4,138.10,29.44,24.61,36.34,0.04,-272.74,-272.74,-51,572,-905,25.1,2.9,-23.6,25.1,3.0,-23.2,5.73,2.32,-25.0,28.2
2012-02-03 00:53:00,0.0,1.9052,0.0009,400.51,0.26,163.6,32.3,138.10,29.45,24.61,36.35,0.04,-272.73,-272.74,-51,572,-905,25.1,2.9,-23.6,25.1,3.0,-23.2,5.73,2.32,-25.0,28.2
2012-02-03 00:54:00,0.0,1.9052,0.0009,400.33,0.32,160.7,29.7,138.10,29.45,24.61,36.36,0.04,-272.73,-272.74,-50,572,-905,25.2,2.9,-23.6,25.1,3.0,-23.2,5.73,2.19,-25.0,28.1
2012-02-03 00:55:00,0.0,1.9056,0.0008,400.45,0.29,167.1,30.2,138.10,29.46,24.61,36.35,0.04,-272.74,-272.74,-51,572,-905,25.2,2.9,-23.6,25.1,3.0,-23.2,5.73,2.32,-25.0,28.2
2012-02-03 00:56:00,0.0,1.9042,0.0010,400.30,0.30,162.4,31.2,138.10,29.46,24.61,36.35,0.04,-272.74,-272.74,-50,572,-905,25.1,2.9,-23.5,25.1,3.0,-23.2,5.73,2.32,-25.0,28.3
2012-02-03 00:57:00,0.0,1.9042,0.0012,400.34,0.28,167.5,30.7,138.10,29.46,24.61,36.35,0.04,-272.74,-272.74,-50,572,-905,25.2,2.9,-23.4,25.1,3.0,-23.1,5.73,2.19,-25.0,28.3
2012-02-03 00:58:00,0.0,1.9052,0.0009,400.38,0.30,164.6,35.0,138.10,29.47,24.61,36.35,0.04,-272.73,-272.74,-51,572,-905,25.2,2.9,-23.5,25.1,3.0,-23.1,5.73,2.31,-25.0,28.3
2012-02-03 00:59:00,0.0,1.9048,0.0010,400.34,0.25,160.3,39.0,138.10,29.47,24.61,36.35,0.04,-272.74,-272.74,-50,572,-905,25.2,2.9,-23.4,25.1,3.0,-23.1,5.73,2.33,-25.0,28.2
2012-02-03 01:00:00,0.0,1.9053,0.0009,400.32,0.24,168.1,34.9,138.10,29.47,24.61,36.35,0.04,-272.74,-272.74,-51,572,-905,25.2,2.9,-23.5,25.1,3.0,-23.1,5.73,2.19,-25.0,28.3
2012-02-03 01:01:00,0.0,1.9050,0.0009,400.48,0.31,165.9,33.6,138.10,29.48,24.61,36.35,0.04,-272.74,-272.74,-51,572,-905,25.2,2.9,-23.5,25.1,3.0,-23.1,5.73,2.31,-25.0,28.2
2012-02-03 01:02:00,0.0,1.9035,0.0014,400.20,0.27,163.2,33.6,138.10,29.48,24.61,36.35,0.04,-272.74,-272.74,-50,572,-905,25.2,2.9,-23.4,25.1,3.0,-23.1,5.73,2.34,-25.0,28.3
2012-02-03 01:03:00,0.0,1.9040,0.0012,400.26,0.32,169.6,30.3,138.10,29.48,24.61,36.35,0.04,-272.74,-272.74,-51,572,-905,25.2,3.0,-23.1,25.1,3.1,-22.8,5.73,2.19,-25.0,28.3
2012-02-03 01:04:00,0.0,1.9035,0.0009,400.16,0.31,165.5,31.2,138.10,29.48,24.61,36.36,0.04,-272.73,-272.74,-50,572,-905,25.2,3.0,-23.2,25.1,3.1,-22.8,5.73,2.30,-25.0,28.3
2012-02-03 01:05:00,0.0,1.9035,0.0010,400.11,0.32,157.3,32.1,138.10,29.49,24.61,36.36,0.04,-272.74,-272.74,-51,572,-905,25.2,3.0,-23.1,25.1,3.1,-22.8,5.73,2.34,-25.0,28.2
2012-02-03 01:06:00,0.0,1.9030,0.0011,400.19,0.36,167.8,31.2,138.10,29.49,24.62,36.35,0.04,-272.74,-272.74,-51,572,-905,25.2,3.0,-23.1,25.2,3.1,-22.7,5.73,2.19,-25.0,28.2
2012-02-03 01:07:00,0.0,1.9042,0.0008,400.36,0.27,161.8,33.8,138.10,29.49,24.61,36.36,0.04,-272.74,-272.74,-50,572,-905,25.2,3.0,-23.0,25.1,3.1,-22.7,5.73,2.31,-25.0,28.2
2012-02-03 01:08:00,0.0,1.9037,0.0008,400.33,0.27,160.1,30.8,138.10,29.50,24.61,36.35,0.04,-272.74,-272.74,-51,572,-905,25.2,3.0,-23.0,25.2,3.1,-22.8,5.73,2.33,-25.0,28.2
2012-02-03 01:09:00,0.0,1.9033,0.0009,400.21,0.27,163.1,30.6,138.10,29.50,24.61,36.36,0.04,-272.74,-272.74,-50,572,-905,25.2,3.0,-23.0,25.2,3.1,-22.7,5.73,2.19,-25.0,28.2
2012-02-03 01:10:00,0.0,1.9032,0.0010,400.26,0.32,164.6,30.6,138.10,29.50,24.61,36.35,0.04,-272.74,-272.74,-51,572,-905,25.2,3.0,-23.0,25.1,3.1,-22.7,5.73,2.31,-25.0,28.2
2012-02-03 01:11:00,0.0,1.9038,0.0008,400.20,0.32,167.2,30.0,138.10,29.51,24.61,36.36,0.04,-272.74,-272.74,-51,572,-905,25.2,3.0,-23.0,25.2,3.1,-22.7,5.73,2.33,-25.0,28.2
2012-02-03 01:12:00,0.0,1.9031,0.0009,400.16,0.30,166.1,28.2,138.10,29.51,24.61,36.36,0.04,-272.74,-272.74,-50,572,-905,25.2,3.0,-23.0,25.2,3.1,-22.7,5.73,2.19,-25.0,28.2
2012-02-03 01:13:00,0.0,1.9030,0.0009,400.19,0.23,170.7,34.1,138.10,29.51,24.61,36.35,0.04,-272.74,-272.74,-51,572,-905,25.2,3.0,-22.9,25.1,3.1,-22.6,5.73,2.30,-25.0,28.2
2012-02-03 01:14:00,0.0,1.9035,0.0009,400.50,0.30,159.5,30.3,138.10,29.51,24.61,36.35,0.04,-272.74,-272.73,-50,572,-905,25.2,3.0,-22.9,25.2,3.1,-22.6,5.73,2.34,-25.0,28.2
2012-02-03 01:15:00,0.0,1.9041,0.0012,400.67,0.30,168.8,35.5,138.10,29.52,24.61,36.36,0.04,-272.74,-272.74,-51,572,-905,25.2,3.0,-23.0,25.2,3.1,-22.6,5.73,2.19,-25.0,28.3
2012-02-03 01:16:00,0.0,1.9037,0.0010,400.72,0.28,165.5,31.6,138.10,29.52,24.62,36.35,0.04,-272.74,-272.74,-51,572,-906,25.2,3.0,-23.0,25.2,3.1,-22.7,5.73,2.30,-25.0,28.3
2012-02-03 01:17:00,0.0,1.9047,0.0009,400.83,0.24,167.4,34.2,138.10,29.52,24.61,36.35,0.04,-272.73,-272.74,-50,572,-905,25.2,3.0,-23.1,25.2,3.1,-22.8,5.73,2.34,-25.0,28.3
2012-02-03 01:18:00,0.0,1.9040,0.0010,400.53,0.28,170.4,33.1,138.10,29.53,24.61,36.35,0.04,-272.74,-272.74,-51,572,-906,25.2,2.9,-23.2,25.2,3.1,-22.8,5.73,2.20,-25.0,28.3
2012-02-03 01:19:00,0.0,1.9040,0.0010,400.53,0.28,173.3,33.9,138.10,29.53,24.61,36.36,0.04,-272.74,-272.74,-51,572,-905,25.3,2.9,-23.3,25.2,3.0,-22.9,5.73,2.27,-24.9,28.4
2012-02-03 01:20:00,0.0,1.9040,0.0009,400.41,0.30,171.1,32.0,138.10,29.53,24.61,36.36,0.04,-272.74,-272.74,-50,572,-905,25.2,2.9,-23.3,25.2,3.0,-23.0,5.73,2.35,-25.0,28.3
2012-02-03 01:21:00,0.0,1.9035,0.0009,400.29,0.26,168.3,38.2,138.10,29.53,24.61,36.35,0.04,-272.74,-272.74,-51,572,-905,25.2,2.9,-23.3,25.2,3.0,-22.9,5.73,2.21,-24.9,28.3
2012-02-03 01:22:00,0.0,1.9044,0.0012,400.43,0.32,170.1,30.3,138.10,29.54,24.61,36.35,0.04,-272.74,-272.74,-50,572,-905,25.2,2.9,-23.3,25.2,3.0,-22.9,5.73,2.26,-24.9,28.3
2012-02-03 01:23:00,0.0,1.9040,0.0011,400.29,0.33,164.9,27.3,138.10,29.54,24.61,36.36,0.04,-272.74,-272.74,-51,572,-905,25.3,2.9,-23.3,25.2,3.0,-23.0,5.73,2.36,-24.9,28.3
2012-02-03 01:24:00,0.0,1.9043,0.0010,400.49,0.35,174.6,33.8,138.10,29.54,24.61,36.35,0.04,-272.74,-272.74,-51,572,-905,25.2,2.9,-23.3,25.2,3.0,-23.0,5.73,2.23,-24.9,28.3
2012-02-03 01:25:00,0.0,1.9039,0.0010,400.34,0.28,178.8,35.7,138.10,29.55,24.61,36.35,0.04,-272.74,-272.74,-50,572,-905,25.2,2.9,-23.4,25.2,3.0,-23.0,5.73,2.23,-24.9,28.3
2012-02-03 01:26:00,0.0,1.9045,0.0012,400.51,0.28,176.1,33.3,138.10,29.55,24.61,36.35,0.04,-272.74,-272.74,-51,572,-905,25.2,2.9,-23.4,25.2,3.0,-23.0,5.73,2.36,-24.9,28.4
2012-02-03 01:27:00,0.0,1.9044,0.0011,400.32,0.29,170.0,35.4,138.10,29.55,24.61,36.35,0.04,-272.74,-272.74,-51,572,-905,25.2,2.9,-23.4,25.2,3.0,-23.0,5.73,2.24,-24.9,28.4
2012-02-03 01:28:00,0.0,1.9047,0.0010,400.54,0.25,164.6,31.1,138.10,29.56,24.61,36.35,0.04,-272.74,-272.74,-50,573,-905,25.2,2.9,-23.4,25.2,3.0,-23.1,5.73,2.22,-24.9,28.2
2012-02-03 01:29:00,0.0,1.9047,0.0008,400.39,0.30,172.7,33.6,138.10,29.56,24.61,36.36,0.04,-272.74,-272.74,-51,572,-905,25.3,2.9,-23.4,25.2,3.0,-23.2,5.73,2.35,-24.9,28.1
2012-02-03 01:30:00,0.0,1.9041,0.0009,400.21,0.29,167.4,33.5,138.10,29.56,24.61,36.36,0.04,-272.74,-272.74,-50,572,-905,25.3,2.9,-23.4,25.2,3.0,-23.1,5.73,2.26,-24.9,28.2
2012-02-03 01:31:00,0.0,1.9042,0.0009,400.26,0.26,170.3,30.7,138.10,29.57,24.61,36.36,0.04,-272.73,-272.74,-51,572,-905,25.3,2.9,-23.4,25.2,3.0,-23.0,5.73,2.21,-24.9,28.2
2012-02-03 01:32:00,0.0,1.9043,0.0008,400.39,0.23,178.1,40.3,138.10,29.57,24.61,36.36,0.04,-272.74,-272.74,-51,572,-905,25.3,2.9,-23.3,25.2,3.0,-23.0,5.73,2.36,-24.9,28.2
2012-02-03 01:33:00,0.0,1.9048,0.0010,400.36,0.32,171.4,31.3,138.10,29.57,24.61,36.35,0.04,-272.74,-272.74,-50,572,-905,25.3,2.9,-23.3,25.2,3.0,-23.0,5.73,2.26,-24.9,28.3
2012-02-03 01:34:00,0.0,1.9045,0.0010,400.35,0.31,168.1,35.3,138.10,29.57,24.61,36.35,0.04,-272.74,-272.74,-51,572,-905,25.3,2.9,-23.4,25.2,3.0,-23.0,5.73,2.21,-24.9,28.2
2012-02-03 01:35:00,0.0,1.9040,0.0008,400.30,0.29,175.7,37.0,138.10,29.58,24.62,36.35,0.04,-272.74,-272.74,-51,572,-905,25.3,2.9,-23.4,25.2,3.0,-23.1,5.73,2.35,-24.9,28.3
2012-02-03 01:36:00,0.0,1.9041,0.0010,400.21,0.22,175.8,30.0,138.10,29.58,24.61,36.36,0.04,-272.74,-272.74,-51,573,-905,25.3,2.9,-23.3,25.2,3.0,-23.1,5.73,2.28,-24.9,28.3
2012-02-03 01:37:00,0.0,1.9045,0.0009,400.34,0.27,176.0,31.2,138.10,29.58,24.61,36.35,0.04,-272.74,-272.74,-51,572,-906,25.3,2.9,-23.3,25.2,3.0,-22.9,5.73,2.20,-24.9,28.4
2012-02-03 01:38:00,0.0,1.9045,0.0009,400.32,0.35,173.4,36.3,138.10,29.59,24.61,36.35,0.04,-272.74,-272.74,-50,573,-906,25.3,2.9,-23.3,25.2,3.0,-23.0,5.73,2.35,-24.9,28.3
2012-02-03 01:39:00,0.0,1.9039,0.0009,400.21,0.29,188.8,30.5,138.10,29.59,24.61,36.35,0.04,-272.74,-272.74,-51,572,-906,25.3,2.9,-23.2,25.2,3.0,-23.0,5.73,2.28,-24.9,28.3
2012-02-03 01:40:00,0.0,1.9046,0.0010,400.23,0.34,169.4,37.2,138.10,29.60,24.61,36.36,0.04,-272.74,-272.74,-51,572,-906,25.3,2.9,-23.2,25.2,3.0,-22.9,5.73,2.20,-24.9,28.3
2012-02-03 01:41:00,0.0,1.9045,0.0009,400.17,0.29,173.0,35.6,138.10,29.60,24.61,36.36,0.04,-272.73,-272.74,-50,573,-906,25.3,2.9,-23.2,25.2,3.0,-22.9,5.73,2.35,-24.9,28.3
2012-02-03 01:42:00,0.0,1.9043,0.0010,400.16,0.25,178.5,33.6,138.10,29.61,24.61,36.36,0.04,-272.74,-272.74,-51,572,-906,25.3,2.9,-23.2,25.2,3.1,-22.8,5.73,2.28,-24.9,28.3
2012-02-03 01:43:00,0.0,1.9042,0.0011,400.17,0.32,170.5,37.1,138.10,29.61,24.61,36.35,0.04,-272.74,-272.74,-50,572,-906,25.3,2.9,-23.2,25.2,3.0,-22.9,5.73,2.20,-24.9,28.3
2012-02-03 01:44:00,0.0,1.9047,0.0010,400.21,0.31,171.7,37.5,138.10,29.61,24.61,36.36,0.04,-272.74,-272.74,-51,573,-906,25.3,2.9,-23.2,25.2,3.1,-22.8,5.73,2.34,-24.9,28.3
2012-02-03 01:45:00,0.0,1.9042,0.0008,400.19,0.25,182.4,35.2,138.10,29.61,24.62,36.36,0.04,-272.74,-272.74,-51,572,-906,25.3,2.9,-23.2,25.2,3.1,-22.8,5.73,2.30,-24.9,28.3
2012-02-03 01:46:00,0.0,1.9045,0.0009,400.28,0.29,179.3,27.8,138.10,29.62,24.61,36.36,0.04,-272.74,-272.74,-50,573,-906,25.3,2.9,-23.2,25.2,3.0,-22.9,5.73,2.19,-24.9,28.2
2012-02-03 01:47:00,0.0,1.9036,0.0010,400.10,0.31,174.2,31.3,138.10,29.62,24.61,36.36,0.04,-272.74,-272.74,-51,572,-906,25.3,2.9,-23.2,25.2,3.0,-22.9,5.73,2.34,-24.8,28.2
2012-02-03 01:48:00,0.0,1.9032,0.0010,400.06,0.29,178.5,36.0,138.10,29.62,24.61,36.36,0.04,-272.74,-272.74,-51,572,-906,25.3,3.0,-23.1,25.2,3.0,-22.9,5.73,2.30,-24.8,28.4
2012-02-03 01:49:00,0.0,1.9034,0.0010,400.08,0.30,182.1,32.4,138.10,29.62,24.61,36.36,0.04,-272.74,-272.74,-51,573,-906,25.3,3.0,-23.1,25.3,3.1,-22.8,5.73,2.19,-24.8,28.4
2012-02-03 01:50:00,0.0,1.9022,0.0009,399.90,0.31,170.9,30.8,138.09,29.62,24.61,36.36,0.04,-272.74,-272.74,-51,572,-906,25.3,3.0,-23.0,25.3,3.1,-22.7,5.73,2.34,-24.8,28.4
2012-02-03 01:51:00,0.0,1.9031,0.0011,399.98,0.25,175.7,31.6,138.10,29.63,24.61,36.36,0.04,-272.73,-272.74,-50,573,-906,25.3,3.0,-23.0,25.3,3.1,-22.7,5.73,2.30,-24.8,28.3
2012-02-03 01:52:00,0.0,1.9033,0.0009,400.14,0.27,173.7,34.3,138.10,29.63,24.61,36.35,0.04,-272.74,-272.74,-51,573,-906,25.3,3.0,-22.9,25.2,3.1,-22.7,5.73,2.19,-24.8,28.4
2012-02-03 01:53:00,0.0,1.9034,0.0010,400.05,0.26,179.7,37.5,138.09,29.63,24.61,36.35,0.04,-272.74,-272.74,-51,572,-906,25.4,3.0,-22.9,25.3,3.1,-22.5,5.73,2.33,-24.8,28.4
2012-02-03 01:54:00,0.0,1.9034,0.0012,399.99,0.33,167.2,32.5,138.10,29.63,24.61,36.36,0.04,-272.74,-272.74,-51,573,-906,25.3,3.0,-22.8,25.3,3.1,-22.6,5.73,2.30,-24.8,28.4
2012-02-03 01:55:00,0.0,1.9030,0.0009,400.02,0.30,181.9,34.0,138.10,29.64,24.61,36.36,0.04,-272.74,-272.74,-51,572,-906,25.3,3.0,-22.9,25.3,3.1,-22.5,5.73,2.19,-24.9,28.4
2012-02-03 01:56:00,0.0,1.9033,0.0009,400.14,0.29,181.5,34.0,138.10,29.64,24.61,36.35,0.04,-272.74,-272.74,-50,573,-906,25.3,3.0,-23.0,25.3,3.1,-22.7,5.73,2.33,-24.9,28.4
2012-02-03 01:57:00,0.0,1.9031,0.0009,400.19,0.27,178.5,34.7,138.10,29.64,24.61,36.35,0.04,-272.74,-272.74,-51,573,-906,25.3,3.0,-22.9,25.3,3.1,-22.6,5.73,2.31,-24.8,28.4
2012-02-03 01:58:00,0.0,1.9030,0.0010,400.03,0.24,179.9,31.4,138.10,29.65,24.62,36.36,0.04,-272.74,-272.74,-51,572,-906,25.3,3.0,-23.0,25.3,3.1,-22.6,5.73,2.19,-24.8,28.4
2012-02-03 01:59:00,0.0,1.9036,0.0007,400.04,0.27,175.0,30.5,138.09,29.65,24.61,36.36,0.04,-272.74,-272.74,-50,573,-906,25.3,3.0,-23.0,25.3,3.1,-22.6,5.73,2.32,-24.9,28.4
2012-02-03 02:00:00,0.0,1.9030,0.0010,400.04,0.29,173.2,30.5,138.09,29.65,24.61,36.35,0.04,-272.74,-272.74,-51,572,-906,25.3,3.0,-22.9,25.3,3.1,-22.7,5.73,2.32,-24.9,28.3
2012-02-03 02:01:00,0.0,1.9030,0.0009,400.04,0.32,185.2,30.4,138.09,29.65,24.61,36.36,0.04,-272.74,-272.74,-51,573,-906,25.3,3.0,-23.0,25.3,3.1,-22.6,5.73,2.19,-24.8,28.4
2012-02-03 02:02:00,0.0,1.9032,0.0009,400.06,0.28,182.2,36.4,138.10,29.66,24.61,36.36,0.04,-272.74,-272.74,-51,573,-906,25.3,3.0,-22.9,25.3,3.1,-22.5,5.73,2.32,-24.9,28.4
2012-02-03 02:03:00,0.0,1.9027,0.0010,400.00,0.28,180.1,30.5,138.10,29.66,24.61,36.36,0.04,-272.74,-272.74,-51,572,-906,25.3,3.0,-22.9,25.3,3.1,-22.6,5.73,2.32,-24.8,28.3
2012-02-03 02:04:00,0.0,1.9025,0.0010,400.02,0.33,177.7,31.9,138.10,29.66,24.61,36.36,0.04,-272.74,-272.74,-50,573,-906,25.4,3.0,-22.8,25.3,3.1,-22.6,5.73,2.20,-24.8,28.3
2012-02-03 02:05:00,0.0,1.9029,0.0009,400.04,0.28,183.0,34.7,138.10,29.66,24.61,36.36,0.04,-272.74,-272.74,-51,572,-906,25.3,3.0,-22.9,25.3,3.1,-22.6,5.73,2.30,-24.8,28.3
2012-02-03 02:06:00,0.0,1.9025,0.0007,399.98,0.36,178.2,35.6,138.10,29.67,24.62,36.36,0.04,-272.74,-272.74,-51,572,-906,25.3,3.0,-22.9,25.3,3.1,-22.6,5.73,2.34,-24.8,28.3
2012-02-03 02:07:00,0.0,1.9024,0.0010,400.00,0.26,175.3,30.4,138.10,29.67,24.61,36.36,0.04,-272.74,-272.74,-51,573,-906,25.4,3.0,-22.8,25.3,3.1,-22.5,5.73,2.19,-24.8,28.4
2012-02-03 02:08:00,0.0,1.9021,0.0009,399.99,0.28,184.3,32.0,138.10,29.67,24.61,36.36,0.04,-272.74,-272.74,-51,572,-906,25.3,3.0,-22.9,25.3,3.1,-22.5,5.73,2.30,-24.8,28.4
2012-02-03 02:09:00,0.0,1.9020,0.0009,399.95,0.31,178.5,24.9,138.09,29.67,24.61,36.36,0.04,-272.74,-272.74,-50,573,-906,25.3,3.0,-22.8,25.3,3.2,-22.3,5.73,2.34,-24.8,28.5
2012-02-03 02:10:00,0.0,1.9023,0.0009,400.02,0.30,177.2,35.8,138.09,29.68,24.61,36.35,0.04,-272.74,-272.74,-51,573,-906,25.3,3.1,-22.7,25.3,3.2,-22.3,5.73,2.20,-24.8,28.4
2012-02-03 02:11:00,0.0,1.9023,0.0009,399.92,0.27,175.5,31.5,138.09,29.68,24.61,36.36,0.04,-272.74,-272.74,-51,572,-906,25.4,3.1,-22.5,25.3,3.2,-22.3,5.73,2.28,-24.8,28.4
2012-02-03 02:12:00,0.0,1.9021,0.0009,400.05,0.29,190.4,33.3,138.10,29.68,24.61,36.35,0.04,-272.74,-272.74,-50,573,-906,25.3,3.1,-22.5,25.3,3.2,-22.1,5.73,2.35,-24.8,28.4
2012-02-03 02:13:00,0.0,1.9025,0.0009,399.88,0.27,178.5,28.7,138.10,29.69,24.61,36.36,0.04,-272.74,-272.74,-51,572,-906,25.3,3.1,-22.5,25.3,3.2,-22.1,5.73,2.20,-24.8,28.4
2012-02-03 02:14:00,0.0,1.9027,0.0008,400.03,0.31,182.8,33.4,138.09,29.69,24.61,36.35,0.04,-272.74,-272.73,-51,573,-906,25.3,3.1,-22.4,25.3,3.2,-22.2,5.73,2.27,-24.8,28.4
2012-02-03 02:15:00,0.0,1.9024,0.0010,400.01,0.26,186.3,33.6,138.09,29.69,24.61,36.35,0.04,-272.74,-272.74,-51,573,-906,25.3,3.1,-22.4,25.3,3.2,-22.1,5.73,2.35,-24.8,28.4
2012-02-03 02:16:00,0.0,1.9025,0.0008,400.33,0.32,184.1,34.2,138.09,29.69,24.61,36.36,0.04,-272.74,-272.74,-51,572,-906,25.4,3.2,-22.3,25.3,3.3,-22.0,5.73,2.21,-24.8,28.3